Meteo Giornale » Osservazioni meteo Italia » Bari-Palese Macchie

ore: 22:50 - Osservazioni Meteo Bari-Palese Macchie
Lat. 41° 8' N Lon. 16° 47' E Alt. 34 metri s.l.m.

poco_nuvoloso Europe/Rome

14 °C

Poco Nuvoloso

Temp. 24 Ore

12 °C

17 °C

Nord

16.7 Km/h

Dew point 10 °C

Umidità 76 %

Visibilità  10 Km

Il sole sorge alle ore 05:50

Il sole tramonta alle ore 19:49

Data e Ora Cielo e Fenomeni T °C DP °C Um. % Pres. hPa Vis. km Vento km/h
Oggi h: 22:50 poco_nuvoloso Poco Nuvoloso 14 10 76 1014 10 N 16.7
Oggi h: 22:20 poco_nuvoloso Poco Nuvoloso 14 10 76 1014 10 N 16.7
Oggi h: 21:50 poco_nuvoloso Poco Nuvoloso 14 10 76 1014 10 N 18.5
Oggi h: 21:20 poco_nuvoloso Poco Nuvoloso 14 10 76 1014 10 N 14.8
Oggi h: 20:50 poco_nuvoloso Poco Nuvoloso 13 10 81 1014 10 N 14.8
Oggi h: 20:20 poco_nuvoloso Poco Nuvoloso 13 10 81 1014 10 N 16.7
Oggi h: 19:50 poco_nuvoloso Poco Nuvoloso 14 10 76 1014 10 N/NE 14.8
Oggi h: 19:20 poco_nuvoloso Poco Nuvoloso 14 10 76 1014 10 N/NE 13
Oggi h: 18:50 poco_nuvoloso Poco Nuvoloso 14 10 76 1014 10 N/NE 13
Oggi h: 18:20 nuvoloso Nuvoloso 14 10 76 1014 10 N/NE 16.7
Oggi h: 17:50 nuvoloso Nuvoloso 14 10 76 1014 10 N/NE 14.8
Oggi h: 17:20 nuvoloso Nuvoloso 13 11 87 1014 10 N/NE 13
Oggi h: 16:50 nuvoloso Nuvoloso 13 10 81 1014 10 N 14.8
Oggi h: 16:20 nuvoloso Nuvoloso 13 11 87 1013 10 N 14.8
Oggi h: 15:50 nuvoloso Nuvoloso 13 11 87 1013 10 N 16.7
Oggi h: 15:20 nuvoloso Nuvoloso 13 11 87 1013 10 N 14.8
Oggi h: 14:50 nuvoloso Nuvoloso 13 11 87 1014 10 N 14.8
Oggi h: 14:20 coperto_pioggia Pioviggine 12 11 93 1014 8 N 13
Oggi h: 13:50 coperto_pioggia Pioggia Debole 13 11 87 1014 7 N 13
Oggi h: 13:20 coperto_pioggia Pioggia Debole 13 11 87 1014 10 N 14.8
Oggi h: 12:50 coperto_pioggia Pioggia Debole 13 11 87 1014 10 N 16.7
Oggi h: 12:20 coperto_pioggia Pioviggine Leggera 13 11 87 1014 10 N 11.1
Oggi h: 11:50 coperto_pioggia Pioviggine Leggera 13 10 81 1014 10 N 18.5
Oggi h: 11:20 coperto_pioggia Pioviggine Leggera 13 10 81 1013 10 N 13
Oggi h: 10:50 molto_nuvoloso Molto Nuvoloso 13 10 81 1013 10 N 14.8
Oggi h: 10:20 coperto_pioggia Pioviggine Leggera 13 10 81 1013 10 N 9.3
Oggi h: 09:50 molto_nuvoloso Molto Nuvoloso 13 10 81 1013 10 N 7.4
Oggi h: 09:20 coperto_pioggia Pioviggine Leggera 12 10 87 1012 8 N 16.7
Oggi h: 08:50 molto_nuvoloso Molto Nuvoloso 14 10 76 1012 10 N/NE 13
Oggi h: 08:20 molto_nuvoloso Molto Nuvoloso 13 9 76 1013 10 N/NE 11.1
Oggi h: 07:50 coperto_pioggia Pioviggine Leggera 13 9 76 1013 10 N/NE 9.3
Oggi h: 07:20 molto_nuvoloso Molto Nuvoloso 14 9 71 1013 10 N 11.1
Oggi h: 06:20 nuvoloso Nuvoloso 14 10 76 1012 10 N 14.8
Oggi h: 05:50 nuvoloso Nuvoloso 14 10 76 1012 10 N/NE 16.7
Oggi h: 05:20 nuvoloso Nuvoloso 14 10 76 1011 10 N 16.7
Oggi h: 04:50 poco_nuvoloso Poco Nuvoloso 14 10 76 1011 10 N 18.5
Oggi h: 04:20 poco_nuvoloso Poco Nuvoloso 15 12 82 1011 10 N/NO 13
Oggi h: 03:50 poco_nuvoloso Poco Nuvoloso 15 12 82 1011 10 N 16.7
Oggi h: 03:20 poco_nuvoloso Poco Nuvoloso 15 13 87 1011 10 N 22.2
Oggi h: 02:50 poco_nuvoloso Poco Nuvoloso 15 13 87 1011 10 N 16.7
Oggi h: 02:20 sereno Sereno 16 12 77 1011 10 N/NO 7.4
Oggi h: 01:50 sereno Sereno 17 12 72 1010 10 N 5.5
Oggi h: 01:20 sereno Sereno 17 12 72 1010 10 O 13
Oggi h: 00:50 sereno Sereno 16 12 77 1010 10 N 5.5
Oggi h: 00:20 sereno Sereno 17 12 72 1010 10 O/SO 7.4
Ieri h: 23:50 sereno Sereno 17 12 72 1009 10 SO 11.1